Precipitable_Water
1.05 1.02 0.98 0.96 0.96 0.96 0.93 0.89 0.85 0.78 0.72 0.67 0.63 0.61 0.60 0.60 0.59 0.55 0.53 0.51 0.50 0.48 0.48 0.47 0.47 0.47 0.47 0.46 0.46 0.46 0.46 0.47 0.48 0.47 0.46 0.46 0.45 0.45 0.44 0.41 0.36 0.35
1.02 1.02 1.01 0.99 0.96 0.94 0.92 0.89 0.83 0.76 0.69 0.65 0.62 0.61 0.60 0.59 0.57 0.53 0.49 0.47 0.47 0.47 0.47 0.47 0.47 0.46 0.46 0.46 0.46 0.45 0.46 0.48 0.47 0.48 0.44 0.45 0.44 0.44 0.44 0.43 0.39 0.37
1.05 1.03 1.01 0.98 0.97 0.96 0.93 0.90 0.83 0.77 0.70 0.66 0.64 0.60 0.59 0.58 0.55 0.52 0.50 0.48 0.45 0.46 0.46 0.47 0.46 0.46 0.46 0.46 0.46 0.46 0.47 0.47 0.47 0.48 0.45 0.44 0.44 0.43 0.44 0.44 0.39 0.36
0.99 0.98 0.96 0.95 0.94 0.91 0.88 0.83 0.78 0.71 0.66 0.64 0.62 0.61 0.59 0.56 0.54 0.52 0.50 0.48 0.46 0.45 0.46 0.46 0.46 0.46 0.46 0.46 0.46 0.46 0.47 0.47 0.48 0.48 0.44 0.42 0.42 0.42 0.42 0.41 0.38 0.35
0.92 0.91 0.90 0.89 0.88 0.85 0.81 0.75 0.69 0.67 0.64 0.63 0.62 0.60 0.57 0.55 0.52 0.51 0.49 0.48 0.46 0.44 0.44 0.45 0.45 0.45 0.46 0.45 0.46 0.45 0.46 0.46 0.46 0.45 0.43 0.42 0.42 0.41 0.39 0.38 0.36 0.33
0.89 0.86 0.84 0.82 0.80 0.76 0.72 0.68 0.66 0.64 0.62 0.60 0.59 0.59 0.57 0.55 0.52 0.50 0.48 0.45 0.44 0.43 0.42 0.43 0.43 0.45 0.46 0.46 0.45 0.45 0.45 0.44 0.45 0.45 0.43 0.41 0.41 0.41 0.40 0.37 0.35 0.32
0.84 0.83 0.81 0.79 0.75 0.72 0.68 0.66 0.64 0.61 0.60 0.59 0.58 0.56 0.55 0.52 0.50 0.48 0.45 0.43 0.41 0.40 0.39 0.39 0.41 0.42 0.45 0.46 0.46 0.45 0.46 0.46 0.46 0.46 0.44 0.42 0.39 0.38 0.38 0.35 0.33 0.32
0.83 0.81 0.77 0.74 0.70 0.67 0.64 0.62 0.60 0.58 0.57 0.57 0.55 0.56 0.55 0.51 0.48 0.44 0.42 0.39 0.37 0.36 0.37 0.38 0.39 0.42 0.45 0.47 0.47 0.47 0.46 0.47 0.46 0.45 0.43 0.40 0.37 0.33 0.34 0.34 0.32 0.29
0.82 0.77 0.74 0.70 0.65 0.62 0.59 0.58 0.57 0.56 0.55 0.54 0.53 0.53 0.53 0.50 0.46 0.42 0.39 0.36 0.34 0.33 0.34 0.36 0.39 0.41 0.46 0.47 0.47 0.47 0.46 0.45 0.45 0.43 0.40 0.37 0.34 0.32 0.32 0.31 0.28 0.27
0.77 0.73 0.69 0.65 0.61 0.59 0.57 0.56 0.54 0.53 0.54 0.52 0.52 0.51 0.49 0.47 0.44 0.40 0.37 0.34 0.32 0.32 0.33 0.35 0.38 0.41 0.45 0.46 0.46 0.47 0.46 0.46 0.45 0.40 0.37 0.35 0.34 0.32 0.30 0.28 0.27 0.26
0.72 0.68 0.65 0.61 0.58 0.58 0.56 0.55 0.53 0.52 0.52 0.52 0.51 0.50 0.47 0.43 0.40 0.38 0.35 0.33 0.32 0.32 0.33 0.34 0.36 0.39 0.42 0.44 0.46 0.45 0.45 0.45 0.42 0.38 0.36 0.35 0.33 0.31 0.29 0.28 0.27 0.26
0.69 0.66 0.62 0.58 0.57 0.56 0.54 0.53 0.52 0.51 0.50 0.51 0.51 0.48 0.45 0.42 0.38 0.35 0.33 0.32 0.32 0.34 0.35 0.34 0.36 0.39 0.42 0.43 0.43 0.42 0.42 0.42 0.41 0.37 0.34 0.34 0.32 0.30 0.30 0.29 0.26 0.27
0.67 0.64 0.60 0.57 0.56 0.54 0.54 0.53 0.51 0.51 0.49 0.47 0.48 0.46 0.43 0.40 0.37 0.34 0.33 0.33 0.34 0.35 0.34 0.35 0.36 0.39 0.40 0.40 0.40 0.40 0.39 0.38 0.38 0.36 0.32 0.34 0.33 0.32 0.31 0.30 0.28 0.29
0.66 0.63 0.59 0.57 0.56 0.55 0.54 0.53 0.52 0.50 0.50 0.49 0.47 0.44 0.42 0.39 0.36 0.34 0.35 0.35 0.34 0.34 0.35 0.36 0.34 0.34 0.35 0.37 0.37 0.37 0.36 0.36 0.36 0.35 0.32 0.31 0.33 0.34 0.33 0.30 0.29 0.28
0.65 0.62 0.59 0.57 0.56 0.54 0.53 0.52 0.50 0.49 0.49 0.49 0.48 0.46 0.43 0.40 0.38 0.36 0.35 0.34 0.34 0.33 0.32 0.31 0.30 0.31 0.33 0.34 0.34 0.34 0.35 0.34 0.34 0.34 0.33 0.30 0.31 0.33 0.32 0.30 0.29 0.28
0.63 0.60 0.58 0.56 0.55 0.53 0.51 0.49 0.48 0.48 0.48 0.47 0.47 0.45 0.43 0.41 0.35 0.33 0.33 0.32 0.29 0.27 0.27 0.27 0.28 0.30 0.31 0.32 0.33 0.33 0.33 0.32 0.32 0.31 0.31 0.29 0.30 0.31 0.30 0.30 0.30 0.28
0.61 0.58 0.57 0.55 0.53 0.51 0.49 0.48 0.47 0.47 0.46 0.47 0.47 0.46 0.43 0.40 0.36 0.33 0.29 0.27 0.25 0.24 0.25 0.26 0.27 0.29 0.30 0.31 0.32 0.32 0.32 0.31 0.31 0.32 0.32 0.28 0.28 0.30 0.29 0.29 0.29 0.28
0.59 0.58 0.55 0.53 0.51 0.49 0.48 0.46 0.45 0.45 0.44 0.45 0.47 0.47 0.44 0.42 0.38 0.31 0.26 0.24 0.24 0.24 0.24 0.25 0.26 0.28 0.29 0.30 0.30 0.31 0.33 0.33 0.33 0.32 0.32 0.30 0.25 0.28 0.30 0.29 0.28 0.28
0.58 0.56 0.53 0.51 0.49 0.47 0.46 0.45 0.43 0.43 0.43 0.45 0.46 0.48 0.47 0.40 0.35 0.31 0.26 0.25 0.24 0.23 0.22 0.23 0.25 0.27 0.28 0.28 0.29 0.30 0.31 0.31 0.31 0.31 0.31 0.31 0.28 0.24 0.30 0.29 0.28 0.27
0.56 0.53 0.51 0.49 0.47 0.45 0.44 0.43 0.42 0.43 0.45 0.46 0.46 0.46 0.42 0.38 0.36 0.33 0.27 0.24 0.23 0.22 0.22 0.22 0.23 0.25 0.27 0.28 0.28 0.27 0.27 0.29 0.29 0.29 0.30 0.30 0.29 0.27 0.29 0.29 0.28 0.27
0.55 0.53 0.48 0.46 0.44 0.43 0.42 0.41 0.42 0.42 0.42 0.42 0.40 0.39 0.39 0.39 0.36 0.33 0.29 0.24 0.22 0.21 0.20 0.20 0.20 0.22 0.24 0.26 0.26 0.25 0.24 0.25 0.26 0.27 0.28 0.29 0.29 0.28 0.30 0.29 0.28 0.27
0.54 0.50 0.46 0.44 0.44 0.43 0.42 0.42 0.43 0.44 0.42 0.40 0.37 0.37 0.39 0.40 0.39 0.36 0.30 0.26 0.21 0.20 0.19 0.18 0.19 0.19 0.19 0.20 0.22 0.23 0.22 0.21 0.22 0.24 0.26 0.28 0.28 0.27 0.28 0.30 0.29 0.27
0.52 0.49 0.46 0.44 0.45 0.44 0.44 0.44 0.43 0.40 0.37 0.36 0.33 0.33 0.33 0.35 0.35 0.34 0.32 0.27 0.24 0.22 0.21 0.20 0.19 0.19 0.19 0.18 0.19 0.20 0.20 0.19 0.19 0.22 0.24 0.25 0.27 0.27 0.28 0.29 0.30 0.27
0.51 0.48 0.46 0.46 0.47 0.46 0.46 0.43 0.40 0.38 0.36 0.37 0.33 0.29 0.27 0.28 0.31 0.31 0.29 0.27 0.26 0.25 0.24 0.23 0.22 0.21 0.19 0.18 0.18 0.19 0.19 0.18 0.18 0.18 0.20 0.23 0.25 0.27 0.27 0.27 0.29 0.28
0.52 0.50 0.49 0.50 0.49 0.47 0.44 0.40 0.38 0.38 0.39 0.39 0.37 0.35 0.32 0.30 0.28 0.27 0.28 0.30 0.30 0.29 0.29 0.27 0.25 0.23 0.20 0.18 0.18 0.18 0.18 0.18 0.18 0.17 0.17 0.18 0.21 0.22 0.26 0.26 0.26 0.26
0.53 0.52 0.52 0.52 0.48 0.45 0.42 0.41 0.41 0.40 0.39 0.38 0.37 0.36 0.34 0.33 0.32 0.31 0.30 0.30 0.31 0.31 0.31 0.30 0.28 0.25 0.22 0.19 0.18 0.18 0.19 0.19 0.19 0.18 0.17 0.18 0.20 0.21 0.21 0.23 0.24 0.24
Wind_Speed
6 7 7 7 7 8 8 9 10 10 10 10 11 11 12 12 13 13 13 14 14 14 15 16 16 16 16 17 17 17 18 18 19 20 21 21 21 22 22 23 23 23
7 7 7 7 8 8 9 10 10 10 10 10 11 11 12 12 13 13 13 14 14 14 15 16 16 16 16 16 17 17 18 18 19 20 21 21 21 22 22 23 23 23
7 7 8 8 8 8 9 10 9 9 10 10 11 11 12 12 12 13 13 14 14 14 15 15 15 15 16 16 17 17 18 18 19 20 21 21 21 22 23 23 24 24
7 8 8 8 8 8 9 9 9 10 10 11 11 11 12 12 12 13 13 14 14 14 15 15 15 15 15 16 17 17 18 19 19 20 21 21 22 22 23 24 24 24
7 7 7 7 7 8 8 9 9 10 11 11 11 11 11 12 12 13 13 13 14 14 14 14 14 15 15 16 17 17 18 19 20 20 21 21 22 23 24 24 25 25
7 7 7 7 7 7 8 8 9 10 10 10 11 11 11 11 12 12 13 13 13 13 13 14 14 15 15 16 17 18 18 19 20 20 21 22 23 24 24 25 25 26
7 7 7 7 7 7 8 9 9 10 10 10 10 10 11 11 12 12 13 13 13 13 13 14 14 15 16 16 17 18 19 19 20 21 22 23 24 24 25 25 26 26
7 7 7 7 7 8 8 9 9 9 9 10 10 10 10 11 11 12 12 12 12 13 13 14 15 15 16 17 17 18 19 19 20 21 22 23 24 24 25 25 26 26
7 7 7 7 7 8 9 9 9 9 9 10 10 10 10 10 11 11 11 12 12 13 13 14 15 15 16 17 17 18 19 20 21 22 22 23 24 24 25 25 26 26
8 7 7 7 8 8 9 9 9 9 9 10 10 10 10 10 11 11 11 12 12 13 13 14 15 15 16 17 18 18 19 20 21 22 22 23 23 24 24 25 26 27
8 8 8 8 9 9 9 9 9 9 10 10 10 10 10 10 10 11 11 12 12 13 14 14 15 15 16 17 18 19 19 20 21 22 22 23 23 24 25 26 27 28
8 9 9 9 9 9 9 9 9 10 10 10 10 10 10 10 11 11 11 11 12 13 14 15 15 16 16 18 19 19 20 20 21 22 22 23 24 24 25 27 27 28
9 10 10 9 9 9 9 9 9 10 10 10 10 10 10 10 10 11 11 11 12 13 14 15 16 16 17 18 19 19 20 20 20 22 22 23 24 25 26 27 27 28
10 10 10 10 10 9 9 10 10 10 10 10 10 10 10 10 10 11 11 12 13 13 14 15 16 16 17 18 19 19 20 20 21 22 23 23 24 24 25 26 27 28
11 11 11 10 10 10 10 10 10 10 10 10 10 9 9 9 10 10 11 12 12 13 14 15 16 17 17 18 19 19 20 20 21 22 23 23 24 24 25 26 27 29
12 11 11 10 10 10 10 10 10 11 10 10 10 9 9 9 10 10 11 11 12 13 14 15 16 17 18 18 19 19 20 21 21 22 23 23 24 24 25 27 28 29
12 12 11 11 11 10 10 10 10 11 10 10 9 9 9 9 10 10 11 11 12 13 14 15 16 17 18 18 19 20 20 21 21 22 23 24 24 25 25 27 28 29
13 12 12 11 11 11 10 10 10 10 10 10 9 9 9 9 10 10 11 11 12 13 15 15 16 17 18 19 20 20 21 21 22 22 23 24 24 25 25 26 28 29
13 13 12 11 11 11 11 11 10 10 10 10 9 9 9 9 9 10 11 11 12 14 14 15 16 17 18 19 20 21 21 21 22 22 22 23 24 25 25 26 27 28
14 13 12 12 11 11 11 10 10 10 10 10 9 9 9 9 9 10 11 12 13 13 14 15 16 17 18 19 20 21 22 22 22 21 22 22 24 25 25 25 27 28
14 13 12 12 11 11 11 10 10 10 9 9 9 9 9 9 9 10 11 12 12 13 14 15 17 18 18 19 20 21 22 22 22 21 22 23 23 24 25 25 27 28
15 14 12 12 12 11 11 11 10 10 9 9 9 8 9 9 9 10 11 11 12 13 14 15 17 18 19 19 20 21 21 22 22 21 22 23 23 24 25 25 27 27
15 14 13 13 12 12 11 11 10 10 9 9 8 8 9 9 9 10 10 11 12 13 14 15 16 18 19 19 20 21 21 21 22 22 22 23 23 24 24 25 26 26
15 14 14 13 13 12 11 11 10 10 9 9 9 8 8 9 9 9 10 11 11 13 14 15 16 17 18 19 20 20 21 21 22 22 22 22 23 23 24 25 25 25
16 15 15 14 13 12 12 11 11 10 10 10 9 9 9 9 9 9 9 10 12 13 14 15 16 17 18 19 20 20 20 21 21 22 23 23 23 23 24 24 24 25
17 16 15 14 13 12 12 11 11 11 10 10 10 10 9 9 9 9 10 11 12 13 14 15 15 16 18 19 19 20 20 21 21 22 23 23 23 23 23 23 24 24
Wind_Direction
231 235 238 243 247 251 258 265 271 276 279 283 288 291 295 299 302 304 306 308 310 312 313 315 315 315 316 317 318 319 319 320 322 324 324 325 326 327 328 329 329 328
235 240 244 249 253 256 261 266 271 275 280 285 289 292 296 299 302 304 306 307 309 312 314 315 315 315 315 316 318 318 318 320 321 323 324 325 326 327 328 329 329 328
240 244 249 253 258 261 265 269 274 278 282 287 291 293 296 299 302 304 306 308 310 312 314 314 314 315 315 316 317 317 317 319 321 323 324 326 326 327 328 328 328 328
244 248 252 257 262 266 271 275 278 281 285 288 292 294 296 299 302 305 308 310 311 311 313 313 313 315 316 316 316 316 317 320 321 323 325 326 327 327 328 327 327 328
248 253 257 260 265 271 275 278 279 282 286 288 291 294 296 300 303 305 308 310 310 310 310 311 313 314 316 316 316 316 318 320 322 323 325 327 327 327 327 326 327 329
251 255 260 264 268 272 276 279 282 284 287 289 292 295 298 301 304 305 306 307 308 309 309 310 312 313 315 316 316 318 320 322 323 324 326 326 327 327 326 326 327 329
253 257 263 267 270 274 278 282 286 288 289 292 294 297 300 302 303 305 306 306 307 308 309 311 311 313 315 317 318 319 321 323 324 325 326 325 325 326 326 326 328 328
255 259 263 268 272 276 282 286 289 291 292 293 294 297 301 303 303 305 306 307 308 309 310 311 312 313 315 317 319 321 322 324 325 325 325 325 325 326 326 326 327 328
258 262 265 271 275 280 285 289 291 292 292 292 293 296 301 304 305 306 307 308 309 310 311 312 313 314 315 317 319 321 323 324 324 324 324 324 325 326 327 327 327 328
258 262 267 273 277 282 287 289 291 291 290 291 293 296 300 303 306 308 308 309 310 312 314 314 314 315 316 317 320 322 323 324 324 324 324 324 325 326 327 328 328 329
256 262 268 273 278 283 286 288 289 289 288 290 293 296 299 302 305 308 308 309 312 314 316 317 317 317 317 319 321 322 323 324 323 323 324 324 326 327 328 329 329 329
256 263 268 273 278 283 286 287 288 288 288 289 292 295 299 302 304 307 309 311 314 316 317 319 319 320 319 320 322 322 323 324 323 324 324 325 326 328 328 329 330 330
256 263 268 273 279 282 284 287 288 288 288 288 291 294 298 301 303 308 312 314 315 316 318 320 321 321 321 321 323 323 323 324 324 325 326 326 327 328 328 328 330 330
256 263 268 272 277 279 282 284 285 286 286 286 290 292 294 300 304 309 313 315 316 318 320 322 322 322 323 323 323 323 323 324 325 326 327 328 327 327 327 328 329 330
255 262 266 271 275 277 279 281 282 283 284 285 286 288 292 301 308 311 313 315 318 320 322 324 324 325 326 325 324 324 324 325 326 327 327 328 328 327 326 327 329 329
254 259 264 269 272 275 277 279 280 280 280 281 283 287 293 302 309 313 315 317 321 323 324 325 326 327 327 326 325 325 325 326 327 328 328 328 329 328 326 327 329 330
251 256 261 265 269 273 275 276 278 278 278 278 281 286 293 300 307 313 317 319 322 324 325 326 327 328 328 328 328 328 327 328 328 328 329 330 330 329 327 328 330 331
249 253 258 263 267 271 273 275 276 276 275 275 279 283 289 296 303 311 317 321 323 325 327 327 327 329 330 330 330 330 329 328 328 328 329 330 331 330 329 330 331 332
247 251 256 260 265 269 272 274 275 274 273 273 276 282 287 292 300 309 317 322 324 327 328 328 328 330 331 332 332 331 330 329 329 330 329 329 331 332 331 331 332 333
246 250 254 258 263 267 270 271 272 272 272 272 275 281 285 290 297 307 316 322 325 328 330 330 330 331 332 333 333 332 332 330 329 330 330 330 332 334 333 333 333 334
245 248 252 256 261 265 267 269 269 269 269 270 273 279 284 290 297 305 314 321 325 328 330 332 333 334 334 334 334 335 334 333 331 331 331 332 334 335 335 335 335 335
243 246 250 254 258 262 263 265 266 266 265 267 271 278 285 292 299 305 311 319 324 328 332 333 334 336 336 336 336 337 337 335 334 333 333 334 335 336 337 337 337 337
242 245 249 253 256 259 260 262 263 262 261 264 269 277 284 291 298 305 311 316 322 327 331 334 334 336 337 338 339 339 338 338 338 337 335 335 336 337 338 339 338 339
243 245 247 251 254 257 258 260 260 258 258 262 267 275 283 291 298 305 310 315 320 325 329 333 334 336 338 340 341 341 340 340 340 340 339 338 337 337 339 340 340 340
242 243 246 249 253 256 257 257 257 256 257 261 265 272 281 290 298 304 309 314 320 325 328 331 333 336 339 341 342 343 342 342 342 343 343 342 341 340 340 342 343 342
240 242 246 249 252 254 255 256 255 255 258 261 265 271 279 287 295 301 307 313 319 323 327 330 332 336 339 341 342 343 344 344 344 345 345 345 345 345 345 345 346 347